QTR40E LIRF-OTHH

Flight info

Callsign QTR40E
Flight time N/A
Altitude 37000
Route SIPRO DCT IPKAM DCT AMSOR DCT EKTOL DCT DOGUS DCT ULFIG DCT LATAN DCT OSDES DCT TRL DCT GUDIS/N0476F370 DCT KAVOS DCT EVORA DCT LAKTO L560 SERMA L550 KARIK B411 DEESA Y415 TAMRO N318 HAYYA
Aircraft B77W/H-SDE1E2E3FGHIJ2J3J4J5M1RWXY/LB1D1

Departure

Time N/A
Airport Rome–Fiumicino Leonardo da Vinci International Airport (LIRF)

Arrival

Time 2026-02-17 15:59
Airport Hamad International Airport (OTHH)
Time Latitude Longitude Altitude Speed Heading
2026-02-17 13:14 32.98915 31.56108 36955 ft 487 kts 137°
2026-02-17 13:14 32.94663 31.62378 36957 ft 486 kts 137°
2026-02-17 13:15 32.88311 31.71724 36967 ft 485 kts 137°
2026-02-17 13:15 32.84058 31.77967 36964 ft 485 kts 138°
2026-02-17 13:16 32.79800 31.84209 36959 ft 485 kts 138°
2026-02-17 13:16 32.75578 31.90387 36962 ft 484 kts 138°
2026-02-17 13:17 32.71331 31.96593 36964 ft 484 kts 138°
2026-02-17 13:17 32.67077 32.02799 36965 ft 484 kts 138°
2026-02-17 13:18 32.62601 32.08651 36975 ft 472 kts 147°
2026-02-17 13:19 32.54861 32.15556 36971 ft 462 kts 154°
2026-02-17 13:19 32.49587 32.19966 36972 ft 463 kts 154°
2026-02-17 13:20 32.44372 32.24369 36985 ft 464 kts 154°
2026-02-17 13:20 32.39120 32.28819 36979 ft 464 kts 154°
2026-02-17 13:21 32.33863 32.33269 36980 ft 465 kts 154°
2026-02-17 13:21 32.28600 32.37716 36982 ft 464 kts 155°
2026-02-17 13:22 32.23341 32.42152 36978 ft 464 kts 155°
2026-02-17 13:22 32.18085 32.46580 36981 ft 464 kts 155°
2026-02-17 13:23 32.10198 32.53205 36980 ft 464 kts 155°
2026-02-17 13:23 32.04941 32.57613 36982 ft 463 kts 155°
2026-02-17 13:24 31.99678 32.62020 36983 ft 463 kts 156°
2026-02-17 13:24 31.94451 32.66393 36987 ft 463 kts 156°
2026-02-17 13:25 31.89194 32.70784 36988 ft 463 kts 156°
2026-02-17 13:25 31.83932 32.75173 36991 ft 463 kts 156°
2026-02-17 13:26 31.78668 32.79557 36996 ft 464 kts 156°
2026-02-17 13:27 31.70760 32.86133 36994 ft 464 kts 157°
2026-02-17 13:27 31.65490 32.90507 36993 ft 464 kts 157°
2026-02-17 13:28 31.60259 32.94843 37015 ft 464 kts 157°
2026-02-17 13:28 31.54987 32.99207 37003 ft 464 kts 157°
2026-02-17 13:29 31.49708 33.03571 37004 ft 464 kts 157°
2026-02-17 13:29 31.44436 33.07923 37004 ft 463 kts 158°
2026-02-17 13:30 31.39163 33.12270 37009 ft 463 kts 158°
2026-02-17 13:30 31.33785 33.16240 37014 ft 450 kts 164°
2026-02-17 13:31 31.25506 33.21402 37010 ft 449 kts 165°
2026-02-17 13:31 31.20920 33.24261 37007 ft 449 kts 165°
2026-02-17 13:32 31.14513 33.28282 37018 ft 450 kts 165°
2026-02-17 13:32 31.09896 33.31184 37019 ft 449 kts 165°
2026-02-17 13:33 31.04426 33.34621 37016 ft 449 kts 165°
2026-02-17 13:33 30.98924 33.38072 37019 ft 449 kts 165°
2026-02-17 13:34 30.93425 33.41515 37019 ft 448 kts 165°
2026-02-17 13:35 30.85193 33.46664 37022 ft 447 kts 165°
2026-02-17 13:35 30.79722 33.50078 37023 ft 445 kts 165°
2026-02-17 13:36 30.74283 33.53467 37017 ft 446 kts 165°
2026-02-17 13:36 30.68811 33.56875 37034 ft 445 kts 165°
2026-02-17 13:37 30.63344 33.60273 37022 ft 445 kts 166°
2026-02-17 13:37 30.57894 33.63658 37021 ft 444 kts 166°
2026-02-17 13:38 30.52491 33.67010 37020 ft 443 kts 166°
2026-02-17 13:38 30.47067 33.70369 37021 ft 441 kts 166°
2026-02-17 13:39 30.38939 33.75394 37026 ft 440 kts 166°
2026-02-17 13:39 30.33533 33.78732 37014 ft 440 kts 166°
2026-02-17 13:40 30.28131 33.82063 37013 ft 440 kts 166°
2026-02-17 13:40 30.22732 33.85387 37015 ft 440 kts 166°
2026-02-17 13:41 30.17369 33.88685 37011 ft 440 kts 166°
2026-02-17 13:41 30.11963 33.92006 37017 ft 440 kts 166°
2026-02-17 13:42 30.06549 33.95327 37013 ft 441 kts 166°
2026-02-17 13:43 29.98407 34.00316 37020 ft 441 kts 166°
2026-02-17 13:43 29.93015 34.03614 37009 ft 441 kts 166°
2026-02-17 13:44 29.87584 34.06933 37002 ft 441 kts 166°
2026-02-17 13:44 29.82158 34.10244 36998 ft 441 kts 166°
2026-02-17 13:45 29.76726 34.13554 36999 ft 442 kts 166°
2026-02-17 13:45 29.71282 34.16869 36997 ft 442 kts 166°
2026-02-17 13:46 29.65860 34.20267 36987 ft 453 kts 158°
2026-02-17 13:46 29.63472 34.22802 36998 ft 485 kts 142°
2026-02-17 13:46 29.61639 34.26191 37006 ft 515 kts 127°
2026-02-17 13:47 29.60290 34.34578 37021 ft 562 kts 98°
2026-02-17 13:47 29.60438 34.39100 37005 ft 568 kts 95°
2026-02-17 13:47 29.60753 34.48162 36996 ft 566 kts 99°
2026-02-17 13:48 29.60343 34.57118 36993 ft 559 kts 104°
2026-02-17 13:48 29.59633 34.66016 36990 ft 559 kts 105°
2026-02-17 13:49 29.58932 34.74911 36985 ft 559 kts 104°
2026-02-17 13:49 29.58275 34.83813 36985 ft 559 kts 104°
2026-02-17 13:50 29.57632 34.92664 36991 ft 558 kts 104°
2026-02-17 13:51 29.56645 35.05976 37000 ft 556 kts 104°
2026-02-17 13:51 29.55976 35.14822 36990 ft 557 kts 104°
2026-02-17 13:52 29.55301 35.23681 36982 ft 557 kts 104°
2026-02-17 13:52 29.54624 35.32539 36985 ft 556 kts 104°
2026-02-17 13:53 29.53960 35.41369 36989 ft 556 kts 102°
2026-02-17 13:53 29.54226 35.50310 36992 ft 569 kts 90°
2026-02-17 13:54 29.55811 35.59282 36992 ft 579 kts 80°
2026-02-17 13:54 29.58040 35.68181 37005 ft 579 kts 79°
2026-02-17 13:55 29.61198 35.81598 37007 ft 578 kts 83°
2026-02-17 13:55 29.62758 35.90628 36986 ft 575 kts 86°
2026-02-17 13:56 29.64178 35.99669 36994 ft 575 kts 86°
2026-02-17 13:56 29.65618 36.08659 36985 ft 575 kts 85°
2026-02-17 13:57 29.67093 36.17692 36979 ft 573 kts 85°
2026-02-17 13:57 29.68558 36.26707 36980 ft 572 kts 85°
2026-02-17 13:58 29.70008 36.35696 36981 ft 571 kts 85°
2026-02-17 13:59 29.72184 36.49107 36974 ft 571 kts 85°
2026-02-17 13:59 29.73642 36.58095 36982 ft 571 kts 85°
2026-02-17 14:00 29.74496 36.67093 36979 ft 559 kts 98°
2026-02-17 14:00 29.73906 36.75911 36980 ft 544 kts 110°
2026-02-17 14:01 29.72252 36.84275 36975 ft 538 kts 114°
2026-02-17 14:01 29.70493 36.92653 36970 ft 538 kts 113°
2026-02-17 14:02 29.68777 37.01044 36986 ft 538 kts 113°
2026-02-17 14:02 29.67092 37.09443 36987 ft 539 kts 112°
2026-02-17 14:03 29.64574 37.21978 36982 ft 539 kts 112°
2026-02-17 14:03 29.62877 37.30370 36982 ft 538 kts 112°
2026-02-17 14:04 29.61171 37.38758 36985 ft 539 kts 112°
2026-02-17 14:04 29.59460 37.47150 36978 ft 539 kts 112°
2026-02-17 14:05 29.57746 37.55531 36976 ft 539 kts 112°
2026-02-17 14:05 29.56029 37.63898 36976 ft 538 kts 112°
2026-02-17 14:06 29.54318 37.72208 36985 ft 537 kts 112°
2026-02-17 14:07 29.51728 37.84728 36986 ft 537 kts 112°
2026-02-17 14:07 29.49995 37.93080 36985 ft 537 kts 111°
2026-02-17 14:08 29.48269 38.01426 36983 ft 538 kts 110°
2026-02-17 14:08 29.46746 38.09854 36982 ft 540 kts 109°
2026-02-17 14:09 29.45303 38.18310 36985 ft 539 kts 108°
2026-02-17 14:09 29.43840 38.26679 37002 ft 538 kts 109°
2026-02-17 14:10 29.42336 38.35082 36995 ft 537 kts 109°
2026-02-17 14:10 29.40821 38.43478 36996 ft 536 kts 109°
2026-02-17 14:11 29.38552 38.56034 37002 ft 535 kts 109°
2026-02-17 14:11 29.37038 38.64380 37002 ft 534 kts 108°
2026-02-17 14:12 29.35523 38.72703 36998 ft 533 kts 108°
2026-02-17 14:12 29.34012 38.80967 37002 ft 532 kts 108°
2026-02-17 14:13 29.32490 38.89269 36997 ft 532 kts 108°
2026-02-17 14:13 29.30864 38.97520 37002 ft 529 kts 110°
2026-02-17 14:14 29.29118 39.05701 37003 ft 528 kts 110°
2026-02-17 14:15 29.26508 39.17963 37007 ft 527 kts 110°
2026-02-17 14:15 29.24790 39.26124 37015 ft 527 kts 110°
2026-02-17 14:16 29.23071 39.34274 37009 ft 526 kts 110°
2026-02-17 14:16 29.21357 39.42362 37011 ft 526 kts 110°
2026-02-17 14:17 29.19630 39.50482 37016 ft 525 kts 110°
2026-02-17 14:17 29.17901 39.58593 37013 ft 525 kts 110°
2026-02-17 14:18 29.16162 39.66720 37019 ft 524 kts 110°
2026-02-17 14:18 29.14521 39.74363 37017 ft 524 kts 110°
2026-02-17 14:19 29.11915 39.86464 37036 ft 524 kts 110°
2026-02-17 14:19 29.10311 39.94606 37032 ft 527 kts 107°
2026-02-17 14:20 29.09016 40.02862 37034 ft 527 kts 105°
2026-02-17 14:20 29.07752 40.11120 37039 ft 527 kts 105°
2026-02-17 14:21 29.06452 40.19371 37041 ft 526 kts 106°
2026-02-17 14:21 29.05132 40.27598 37048 ft 526 kts 106°
2026-02-17 14:22 29.03144 40.39921 37048 ft 525 kts 106°
2026-02-17 14:23 29.01161 40.52168 37051 ft 525 kts 106°
2026-02-17 14:23 28.99829 40.60353 37057 ft 524 kts 106°
2026-02-17 14:24 28.98492 40.68540 37056 ft 524 kts 106°
2026-02-17 14:24 28.97151 40.76717 37053 ft 523 kts 105°
2026-02-17 14:25 28.95807 40.84890 37046 ft 523 kts 105°
2026-02-17 14:25 28.94462 40.93047 37052 ft 523 kts 105°
2026-02-17 14:26 28.93113 41.01196 37051 ft 522 kts 105°
2026-02-17 14:27 28.91079 41.13416 37041 ft 522 kts 105°
2026-02-17 14:27 28.89720 41.21546 37044 ft 522 kts 105°
2026-02-17 14:28 28.88356 41.29675 37045 ft 521 kts 105°
2026-02-17 14:28 28.86999 41.37734 37045 ft 521 kts 105°
2026-02-17 14:29 28.85625 41.45860 37034 ft 521 kts 105°
2026-02-17 14:29 28.84251 41.53963 37038 ft 520 kts 105°
2026-02-17 14:30 28.82873 41.62070 37039 ft 520 kts 105°
2026-02-17 14:31 28.80105 41.78271 37035 ft 519 kts 105°
2026-02-17 14:31 28.78724 41.86320 37026 ft 516 kts 105°
2026-02-17 14:32 28.77344 41.94324 37025 ft 513 kts 105°
2026-02-17 14:32 28.75967 42.02276 37023 ft 510 kts 105°
2026-02-17 14:33 28.74823 42.08861 37032 ft 508 kts 105°
2026-02-17 14:33 28.72532 42.21990 37033 ft 507 kts 105°
2026-02-17 14:34 28.71140 42.29922 37044 ft 515 kts 105°
2026-02-17 14:35 28.69019 42.41972 37029 ft 520 kts 105°
2026-02-17 14:35 28.67595 42.50034 37025 ft 518 kts 105°
2026-02-17 14:36 28.66170 42.58071 37022 ft 517 kts 105°
2026-02-17 14:36 28.64579 42.66032 37031 ft 512 kts 111°
2026-02-17 14:37 28.61950 42.73494 37025 ft 504 kts 122°
2026-02-17 14:37 28.58631 42.80510 37025 ft 502 kts 123°
2026-02-17 14:38 28.55289 42.87501 37027 ft 502 kts 122°
2026-02-17 14:38 28.51980 42.94506 37021 ft 502 kts 122°
2026-02-17 14:39 28.47041 43.05022 37030 ft 503 kts 122°
2026-02-17 14:39 28.43765 43.11983 37028 ft 503 kts 122°
2026-02-17 14:40 28.40457 43.18997 37027 ft 503 kts 122°
2026-02-17 14:41 28.36051 43.28315 37028 ft 503 kts 122°
2026-02-17 14:41 28.32734 43.35319 37030 ft 503 kts 122°
2026-02-17 14:42 28.29419 43.42305 37027 ft 503 kts 122°
2026-02-17 14:42 28.26101 43.49287 37029 ft 502 kts 122°
2026-02-17 14:43 28.21122 43.59745 37032 ft 502 kts 122°
2026-02-17 14:43 28.17792 43.66693 37030 ft 501 kts 122°
2026-02-17 14:44 28.14455 43.73578 37033 ft 501 kts 122°
2026-02-17 14:44 28.11100 43.80492 37032 ft 500 kts 122°
2026-02-17 14:45 28.07749 43.87398 37038 ft 499 kts 122°
2026-02-17 14:45 28.04404 43.94286 37037 ft 499 kts 121°
2026-02-17 14:46 28.01078 44.01119 37040 ft 498 kts 121°
2026-02-17 14:47 27.96058 44.11418 37047 ft 497 kts 121°
2026-02-17 14:47 27.92728 44.18267 37054 ft 497 kts 121°
2026-02-17 14:48 27.89434 44.25131 37051 ft 496 kts 121°
2026-02-17 14:48 27.86147 44.31982 37055 ft 496 kts 121°
2026-02-17 14:49 27.82849 44.38831 37055 ft 495 kts 121°
2026-02-17 14:49 27.79571 44.45621 37055 ft 495 kts 121°
2026-02-17 14:50 27.76272 44.52443 37058 ft 495 kts 120°
2026-02-17 14:50 27.72970 44.59261 37058 ft 494 kts 120°
2026-02-17 14:51 27.68019 44.69468 37067 ft 494 kts 120°
2026-02-17 14:51 27.65024 44.76436 37069 ft 495 kts 112°
2026-02-17 14:52 27.63139 44.83909 37071 ft 496 kts 102°
2026-02-17 14:52 27.61808 44.91566 37075 ft 497 kts 102°
2026-02-17 14:53 27.60468 44.99212 37071 ft 497 kts 102°
2026-02-17 14:53 27.59091 45.06782 37074 ft 496 kts 102°
2026-02-17 14:54 27.57689 45.14401 37071 ft 496 kts 102°
2026-02-17 14:55 27.55580 45.25840 37073 ft 496 kts 103°
2026-02-17 14:55 27.54151 45.33443 37075 ft 495 kts 103°
2026-02-17 14:56 27.52715 45.41046 37079 ft 495 kts 103°
2026-02-17 14:56 27.51289 45.48585 37082 ft 495 kts 103°
2026-02-17 14:57 27.49854 45.56163 37085 ft 495 kts 103°
2026-02-17 14:57 27.48414 45.63741 37085 ft 494 kts 103°
2026-02-17 14:58 27.46971 45.71310 37084 ft 494 kts 103°
2026-02-17 14:58 27.45525 45.78877 37090 ft 494 kts 103°
2026-02-17 14:59 27.43346 45.90228 37085 ft 494 kts 103°
2026-02-17 14:59 27.41887 45.97798 37089 ft 494 kts 103°
2026-02-17 15:00 27.40438 46.05296 37087 ft 494 kts 103°
2026-02-17 15:00 27.38976 46.12840 37096 ft 493 kts 103°
2026-02-17 15:01 27.37508 46.20391 37090 ft 493 kts 103°
2026-02-17 15:01 27.36038 46.27936 37098 ft 493 kts 103°
2026-02-17 15:02 27.34605 46.35483 37096 ft 493 kts 102°
2026-02-17 15:03 27.32653 46.46850 37083 ft 493 kts 101°
2026-02-17 15:03 27.31350 46.54420 37084 ft 493 kts 101°
2026-02-17 15:04 27.30037 46.61931 37094 ft 493 kts 101°
2026-02-17 15:04 27.28702 46.69506 37099 ft 493 kts 101°
2026-02-17 15:05 27.27368 46.77059 37086 ft 493 kts 101°
2026-02-17 15:05 27.26028 46.84618 37096 ft 493 kts 102°
2026-02-17 15:06 27.24687 46.92166 37098 ft 493 kts 101°
2026-02-17 15:06 27.23340 46.99723 37095 ft 493 kts 102°
2026-02-17 15:07 27.21312 47.11050 37096 ft 493 kts 102°
2026-02-17 15:07 27.19965 47.18545 37098 ft 493 kts 102°
2026-02-17 15:08 27.18603 47.26098 37096 ft 493 kts 102°
2026-02-17 15:08 27.17239 47.33640 37094 ft 493 kts 102°
2026-02-17 15:09 27.15869 47.41188 37094 ft 493 kts 102°
2026-02-17 15:09 27.14496 47.48736 37094 ft 493 kts 102°
2026-02-17 15:10 27.13114 47.56285 37097 ft 493 kts 102°
2026-02-17 15:11 27.11006 47.67585 37094 ft 493 kts 102°
2026-02-17 15:11 27.09596 47.75123 37093 ft 493 kts 102°
2026-02-17 15:12 27.08184 47.82661 37091 ft 493 kts 102°
2026-02-17 15:12 27.06768 47.90197 37093 ft 493 kts 102°
2026-02-17 15:13 27.05343 47.97729 37089 ft 493 kts 103°
2026-02-17 15:13 27.03727 48.05208 37091 ft 493 kts 104°
2026-02-17 15:14 27.02025 48.12668 37092 ft 493 kts 104°
2026-02-17 15:14 27.00343 48.20129 37086 ft 494 kts 104°
2026-02-17 15:15 26.97854 48.31300 37084 ft 494 kts 104°
2026-02-17 15:15 26.96188 48.38771 37084 ft 494 kts 104°
2026-02-17 15:16 26.94516 48.46236 37080 ft 494 kts 104°
2026-02-17 15:16 26.92840 48.53697 37077 ft 494 kts 104°
2026-02-17 15:17 26.91159 48.61158 37076 ft 494 kts 104°
2026-02-17 15:17 26.89477 48.68613 37074 ft 494 kts 104°
2026-02-17 15:18 26.87798 48.76067 37074 ft 494 kts 103°
2026-02-17 15:19 26.85739 48.87320 37073 ft 493 kts 101°
2026-02-17 15:19 26.84420 48.94868 37072 ft 494 kts 101°
2026-02-17 15:20 26.83054 49.02403 37071 ft 494 kts 101°
2026-02-17 15:20 26.81667 49.09934 37067 ft 494 kts 101°
2026-02-17 15:21 26.80279 49.17454 37071 ft 493 kts 101°
2026-02-17 15:21 26.78894 49.24952 37061 ft 486 kts 101°
2026-02-17 15:21 26.78215 49.28620 37049 ft 474 kts 101°
2026-02-17 15:22 26.77551 49.32202 37058 ft 468 kts 101°
2026-02-17 15:22 26.76172 49.39265 37065 ft 467 kts 105°
2026-02-17 15:23 26.73083 49.49619 37072 ft 468 kts 109°
2026-02-17 15:23 26.70984 49.56527 37063 ft 469 kts 108°
2026-02-17 15:24 26.68909 49.63463 37058 ft 470 kts 108°
2026-02-17 15:24 26.66825 49.70388 37057 ft 470 kts 108°
2026-02-17 15:25 26.64728 49.77319 37054 ft 470 kts 108°
2026-02-17 15:25 26.62634 49.84236 37054 ft 470 kts 108°
2026-02-17 15:26 26.60577 49.91116 37045 ft 466 kts 108°
2026-02-17 15:26 26.59567 49.94548 36740 ft 463 kts 108°
2026-02-17 15:27 26.57520 50.01286 36012 ft 454 kts 109°
2026-02-17 15:27 26.56491 50.04600 35612 ft 450 kts 109°
2026-02-17 15:27 26.55484 50.07902 35186 ft 447 kts 108°
2026-02-17 15:27 26.54495 50.11180 34740 ft 445 kts 108°
2026-02-17 15:28 26.53511 50.14447 34313 ft 443 kts 109°
2026-02-17 15:28 26.52530 50.17702 33847 ft 441 kts 109°
2026-02-17 15:28 26.51553 50.20935 33370 ft 438 kts 109°
2026-02-17 15:28 26.50894 50.23108 33073 ft 436 kts 109°
2026-02-17 15:29 26.49925 50.26305 32636 ft 434 kts 109°
2026-02-17 15:29 26.48959 50.29485 32206 ft 431 kts 109°
2026-02-17 15:29 26.48001 50.32639 31779 ft 428 kts 109°
2026-02-17 15:29 26.47056 50.35743 31362 ft 426 kts 109°
2026-02-17 15:30 26.46112 50.38861 30960 ft 423 kts 108°
2026-02-17 15:30 26.45223 50.41980 30658 ft 418 kts 107°
2026-02-17 15:30 26.44371 50.45066 30326 ft 412 kts 107°
2026-02-17 15:31 26.42708 50.51094 29652 ft 408 kts 107°
2026-02-17 15:31 26.41855 50.54156 29347 ft 418 kts 107°
2026-02-17 15:31 26.40987 50.57253 28997 ft 418 kts 107°
2026-02-17 15:31 26.40119 50.60340 28664 ft 414 kts 107°
2026-02-17 15:32 26.39260 50.63386 28341 ft 409 kts 107°
2026-02-17 15:32 26.38408 50.66397 28026 ft 404 kts 107°
2026-02-17 15:32 26.37570 50.69362 27713 ft 399 kts 107°
2026-02-17 15:32 26.36740 50.72295 27411 ft 394 kts 107°
2026-02-17 15:33 26.35916 50.75189 27108 ft 390 kts 107°
2026-02-17 15:33 26.35089 50.78060 26817 ft 388 kts 107°
2026-02-17 15:33 26.34258 50.80928 26519 ft 389 kts 107°
2026-02-17 15:33 26.33424 50.83807 26232 ft 392 kts 107°
2026-02-17 15:34 26.32587 50.86702 25930 ft 393 kts 107°
2026-02-17 15:34 26.31748 50.89599 25623 ft 391 kts 107°
2026-02-17 15:34 26.30911 50.92484 25321 ft 390 kts 107°
2026-02-17 15:35 26.28728 50.97922 25075 ft 379 kts 118°
2026-02-17 15:35 26.27443 51.00483 25073 ft 380 kts 118°
2026-02-17 15:35 26.26150 51.03030 25080 ft 384 kts 118°
2026-02-17 15:35 26.24815 51.05673 25075 ft 388 kts 118°
2026-02-17 15:36 26.23511 51.08265 25074 ft 388 kts 118°
2026-02-17 15:36 26.22190 51.10889 25066 ft 388 kts 118°
2026-02-17 15:36 26.20872 51.13507 25064 ft 388 kts 118°
2026-02-17 15:36 26.19553 51.16126 25064 ft 387 kts 118°
2026-02-17 15:37 26.18237 51.18737 25062 ft 387 kts 118°
2026-02-17 15:37 26.16920 51.21351 25062 ft 386 kts 118°
2026-02-17 15:37 26.15607 51.23955 25063 ft 385 kts 118°
2026-02-17 15:37 26.14295 51.26556 25064 ft 385 kts 118°
2026-02-17 15:38 26.12985 51.29151 25066 ft 385 kts 118°
2026-02-17 15:38 26.11666 51.31732 25059 ft 382 kts 122°
2026-02-17 15:38 26.09875 51.33882 24810 ft 377 kts 146°
2026-02-17 15:39 26.04998 51.35407 23657 ft 363 kts 173°
2026-02-17 15:39 26.02490 51.35777 22779 ft 364 kts 172°
2026-02-17 15:39 25.99976 51.36158 21859 ft 366 kts 172°
2026-02-17 15:39 25.97444 51.36547 20958 ft 368 kts 172°
2026-02-17 15:40 25.94887 51.36943 20181 ft 375 kts 171°
2026-02-17 15:40 25.92301 51.37347 19783 ft 374 kts 171°
2026-02-17 15:40 25.89737 51.37749 19515 ft 369 kts 171°
2026-02-17 15:40 25.87209 51.38146 19225 ft 365 kts 171°
2026-02-17 15:41 25.84697 51.38541 18875 ft 364 kts 171°
2026-02-17 15:41 25.82223 51.38930 18493 ft 364 kts 171°
2026-02-17 15:41 25.79717 51.39325 18082 ft 364 kts 170°
2026-02-17 15:41 25.77188 51.39723 17686 ft 362 kts 170°
2026-02-17 15:42 25.74731 51.40110 17204 ft 363 kts 170°
2026-02-17 15:42 25.72204 51.40508 16489 ft 371 kts 170°
2026-02-17 15:42 25.69624 51.40915 15939 ft 375 kts 170°
2026-02-17 15:43 25.64441 51.41728 15178 ft 373 kts 170°
2026-02-17 15:43 25.61870 51.42132 15067 ft 374 kts 170°
2026-02-17 15:43 25.59277 51.42539 15073 ft 378 kts 170°
2026-02-17 15:43 25.56655 51.42951 15068 ft 382 kts 170°
2026-02-17 15:44 25.54017 51.43365 15061 ft 383 kts 170°
2026-02-17 15:44 25.51383 51.43777 15049 ft 382 kts 170°
2026-02-17 15:44 25.48763 51.44187 15043 ft 381 kts 170°
2026-02-17 15:44 25.46138 51.44598 15046 ft 380 kts 170°
2026-02-17 15:45 25.43527 51.45007 15047 ft 379 kts 170°
2026-02-17 15:45 25.40915 51.45415 15049 ft 379 kts 170°
2026-02-17 15:45 25.38306 51.45824 15050 ft 378 kts 170°
2026-02-17 15:45 25.35699 51.46231 14971 ft 377 kts 170°
2026-02-17 15:46 25.33141 51.46631 14658 ft 376 kts 170°
2026-02-17 15:46 25.30522 51.47040 14242 ft 374 kts 170°
2026-02-17 15:46 25.27959 51.47440 13911 ft 366 kts 170°
2026-02-17 15:47 25.23196 51.48180 13140 ft 334 kts 169°
2026-02-17 15:47 25.20964 51.48713 12540 ft 325 kts 158°
2026-02-17 15:47 25.18879 51.49620 11893 ft 320 kts 153°
2026-02-17 15:47 25.16852 51.50603 11251 ft 317 kts 153°
2026-02-17 15:48 25.14832 51.51550 10644 ft 314 kts 154°
2026-02-17 15:48 25.12819 51.52457 10061 ft 310 kts 155°
2026-02-17 15:48 25.10823 51.53342 9431 ft 307 kts 155°
2026-02-17 15:48 25.08854 51.54210 8826 ft 303 kts 155°
2026-02-17 15:49 25.06909 51.55066 8220 ft 300 kts 155°
2026-02-17 15:49 25.04983 51.55914 7630 ft 296 kts 155°
2026-02-17 15:49 25.03094 51.56745 7168 ft 288 kts 155°
2026-02-17 15:49 25.01257 51.57552 6747 ft 280 kts 155°
2026-02-17 15:50 24.99466 51.58339 6216 ft 275 kts 155°
2026-02-17 15:50 24.97699 51.59130 5631 ft 272 kts 154°
2026-02-17 15:50 24.94241 51.60799 5069 ft 271 kts 154°
2026-02-17 15:51 24.92532 51.61623 5009 ft 264 kts 154°
2026-02-17 15:51 24.90866 51.62419 4901 ft 257 kts 152°
2026-02-17 15:51 24.89451 51.63559 4483 ft 252 kts 124°
2026-02-17 15:51 24.88762 51.65283 4112 ft 246 kts 94°
2026-02-17 15:52 24.88881 51.67130 3749 ft 242 kts 76°
2026-02-17 15:52 24.89475 51.68833 3520 ft 239 kts 51°
2026-02-17 15:52 24.90759 51.69965 3507 ft 239 kts 22°
2026-02-17 15:52 24.92334 51.70518 3515 ft 237 kts 14°
2026-02-17 15:53 24.93916 51.70941 3501 ft 237 kts 13°
2026-02-17 15:53 24.95519 51.71351 3506 ft 236 kts 13°
2026-02-17 15:53 24.97113 51.71754 3499 ft 235 kts 13°
2026-02-17 15:53 24.98709 51.72010 3497 ft 232 kts 355°
2026-02-17 15:54 25.00299 51.71576 3518 ft 240 kts 343°
2026-02-17 15:54 25.01887 51.70956 3516 ft 243 kts 340°
2026-02-17 15:54 25.04998 51.69606 3493 ft 238 kts 339°
2026-02-17 15:55 25.06528 51.68930 3496 ft 236 kts 339°
2026-02-17 15:55 25.08052 51.68257 3492 ft 235 kts 339°
2026-02-17 15:55 25.09592 51.67578 3292 ft 244 kts 339°
2026-02-17 15:55 25.11167 51.66884 2962 ft 240 kts 339°
2026-02-17 15:56 25.12695 51.66210 2642 ft 231 kts 339°
2026-02-17 15:56 25.14155 51.65564 2362 ft 228 kts 339°
2026-02-17 15:56 25.15647 51.64907 2063 ft 228 kts 340°
2026-02-17 15:56 25.17084 51.64273 1793 ft 220 kts 340°
2026-02-17 15:57 25.18440 51.63673 1505 ft 198 kts 340°
2026-02-17 15:57 25.19651 51.63138 1232 ft 178 kts 340°
2026-02-17 15:57 25.20755 51.62651 1000 ft 164 kts 340°
2026-02-17 15:57 25.21764 51.62206 800 ft 146 kts 341°
2026-02-17 15:58 25.22672 51.61806 662 ft 142 kts 340°
2026-02-17 15:58 25.23608 51.61391 467 ft 144 kts 339°
2026-02-17 15:58 25.25405 51.60607 126 ft 137 kts 340°
2026-02-17 15:59 25.26299 51.60211 94 ft 141 kts 339°
2026-02-17 15:59 25.27177 51.59829 49 ft 111 kts 338°
2026-02-17 15:59 25.27474 51.59717 49 ft 15 kts 11°
2026-02-17 15:59 25.27528 51.59790 49 ft 7 kts 69°
2026-02-17 16:00 25.27532 51.59842 55 ft 7 kts 109°
2026-02-17 16:00 25.27498 51.59881 58 ft 7 kts 146°
2026-02-17 16:00 25.27450 51.59903 53 ft 8 kts 159°
2026-02-17 16:00 25.27394 51.59927 54 ft 9 kts 159°
2026-02-17 16:01 25.27331 51.59953 59 ft 10 kts 159°
2026-02-17 16:01 25.27266 51.59981 55 ft 10 kts 159°
2026-02-17 16:01 25.27206 51.60007 58 ft 10 kts 158°
2026-02-17 16:01 25.27138 51.60039 54 ft 12 kts 155°
2026-02-17 16:02 25.27126 51.60046 57 ft 0 kts 155°
2026-02-17 16:03 25.27125 51.60046 57 ft 0 kts 155°
2026-02-17 16:03 25.27118 51.60050 57 ft 4 kts 154°
2026-02-17 16:03 25.27054 51.60093 55 ft 12 kts 138°
2026-02-17 16:04 25.27044 51.60182 64 ft 12 kts 76°
2026-02-17 16:04 25.27075 51.60270 61 ft 12 kts 68°
2026-02-17 16:04 25.27106 51.60358 62 ft 12 kts 68°
2026-02-17 16:04 25.27143 51.60444 62 ft 12 kts 63°
2026-02-17 16:05 25.27173 51.60520 61 ft 11 kts 66°
2026-02-17 16:05 25.27199 51.60599 61 ft 11 kts 71°
2026-02-17 16:05 25.27225 51.60679 65 ft 12 kts 70°
2026-02-17 16:05 25.27263 51.60781 63 ft 17 kts 67°
2026-02-17 16:06 25.27309 51.60909 62 ft 18 kts 69°
2026-02-17 16:06 25.27354 51.61042 66 ft 18 kts 69°
2026-02-17 16:06 25.27453 51.61298 62 ft 16 kts 67°
2026-02-17 16:07 25.27487 51.61389 62 ft 11 kts 67°
2026-02-17 16:07 25.27506 51.61487 65 ft 15 kts 107°
2026-02-17 16:07 25.27419 51.61541 58 ft 12 kts 159°
2026-02-17 16:07 25.27404 51.61548 66 ft 2 kts 159°
2026-02-17 16:08 25.27384 51.61556 57 ft 4 kts 159°
2026-02-17 16:08 25.27260 51.61612 62 ft 15 kts 157°
2026-02-17 16:08 25.27148 51.61665 57 ft 20 kts 158°
2026-02-17 16:09 25.27017 51.61719 58 ft 20 kts 160°
2026-02-17 16:09 25.26903 51.61766 58 ft 17 kts 158°
2026-02-17 16:09 25.26795 51.61815 65 ft 17 kts 158°
2026-02-17 16:09 25.26687 51.61863 58 ft 17 kts 158°
2026-02-17 16:10 25.26593 51.61903 57 ft 10 kts 160°
2026-02-17 16:10 25.26537 51.61894 63 ft 9 kts 224°
2026-02-17 16:10 25.26484 51.61771 62 ft 12 kts 248°
2026-02-17 16:11 25.26451 51.61681 65 ft 7 kts 249°
2026-02-17 16:11 25.26430 51.61634 60 ft 2 kts 224°
2026-02-17 16:11 25.26411 51.61638 68 ft 6 kts 159°
2026-02-17 16:11 25.26377 51.61651 61 ft 5 kts 160°
2026-02-17 16:12 25.26347 51.61665 62 ft 0 kts 158°